Location: ???????-????????
(52.0302°N, 54.3494°E)
Time: 02:07:03
(UTC+00:00)

Daily predictions for brighter satellites

Satellite Brightness Start Highest point End
(mag) Time Altitude Azimuth Time Altitude Azimuth Time Altitude Azimuth
Cosmos 1605 Rocket 4.3 00:06:18 10° N 00:12:33 63° ENE 00:18:38 10° SSE
Cosmos 1943 Rocket 2.4 00:14:42 67° ENE 00:14:42 67° ENE 00:20:02 10° SE
Cosmos 2360 Rocket 4.1 00:16:10 18° NNW 00:16:10 18° NNW 00:19:11 10° NNE
ATLAS 2AS CENTAUR R/B 4.1 00:12:18 24° NW 00:16:03 37° N 00:22:55 10° ENE
CZ-2D R/B 4.5 00:17:22 10° NNW 00:17:41 11° NNW 00:17:41 11° NNW
Lacrosse 5 3.1 00:26:50 33° SE 00:26:50 33° SE 00:29:38 10° SE
COSMOS 2428 4.0 00:28:41 28° NNW 00:28:41 28° NNW 00:32:37 10° NNE
BREEZE M DEB (TANK) 4.5 00:29:03 30° ESE 00:29:03 30° ESE 00:32:00 10° E
Nadezhda 3 Rocket 4.2 00:30:43 57° NW 00:30:43 57° NW 00:36:16 10° N
MSX 3.7 00:27:31 10° NNE 00:33:17 86° ESE 00:34:09 66° S
PAYLOAD A 4.1 00:32:41 10° NNE 00:37:34 69° ESE 00:38:28 56° SSE
SL-16 R/B 2.1 00:37:48 76° SSW 00:38:17 88° ESE 00:44:01 10° NNE
ATLAS CENTAUR R/B 2.0 00:39:55 58° NNE 00:39:55 58° NNE 00:43:30 10° NE
CZ-2C R/B 2.8 00:35:33 10° NNE 00:40:44 64° ESE 00:42:53 34° S
ADEOS II 4.0 00:38:02 10° N 00:39:51 18° NNW 00:39:51 18° NNW
Cosmos 2251 Rocket 3.4 00:42:08 79° SSW 00:42:28 88° ESE 00:47:49 10° NNE
Cosmos 1980 4.4 00:45:14 39° NNW 00:45:14 39° NNW 00:50:05 10° NNE
NOSS 0 Rocket 4.5 00:44:43 41° NW 00:44:43 41° NW 00:50:36 10° NNE
IDEFIX/ARIANE 42P 3.0 00:39:44 10° N 00:43:56 49° NNW 00:43:56 49° NNW
Cosmos 2369 Rocket 2.1 00:42:57 29° NNW 00:46:05 87° ENE 00:51:49 10° SSE
Cosmos 1339 Rocket 4.4 00:46:06 23° S 00:50:06 83° E 00:56:16 10° NNE
Cosmos 1356 Rocket 3.7 00:54:12 60° NNE 00:54:12 60° NNE 00:57:37 10° NNE
Spot 2 4.1 00:51:23 10° NNE 00:55:29 72° ESE 00:55:57 64° SSE
Cosmos 1656 Rocket 4.3 00:49:56 10° NNW 00:55:32 56° NE 01:01:08 10° SE
H-2A R/B 3.4 00:53:16 10° NNE 00:57:34 50° E 01:01:54 10° S
SKYMED 2 4.5 00:54:27 10° SE 00:58:38 49° ENE 01:02:51 10° N
Cosmos 1500 Rocket 3.7 00:54:27 10° N 00:58:56 74° E 01:03:19 10° SSE
Cosmos 1633 4.2 00:56:54 10° N 01:00:18 35° ENE 01:03:41 10° SE
NOSS 2-1 (E) 3.5 01:01:01 61° NNE 01:01:01 61° NNE 01:04:28 10° NE
Cosmos 2263 4.2 00:57:19 13° NNW 01:02:27 86° ENE 01:08:06 10° SSE
Cosmos 2100 Rocket 4.4 00:57:39 10° N 01:03:52 64° ENE 01:09:59 10° SSE
USA 215 3.3 00:57:44 10° ENE 01:04:13 69° NNW 01:06:42 40° W
COSMOS 2441 4.4 01:01:02 10° N 01:05:51 56° WNW 01:05:54 56° WNW
STARLINK-1129 3.6 01:10:49 56° ENE 01:10:49 56° ENE 01:13:34 10° E
Cosmos 1743 Rocket 3.3 01:07:07 10° NNW 01:11:28 80° W 01:15:47 10° S
STARLINK-1134 3.5 01:12:53 60° ENE 01:12:53 60° ENE 01:15:44 10° E
CZ-4B R/B 4.2 01:09:29 10° NNE 01:13:48 76° ESE 01:17:37 14° S
ARIANE 5 R/B 4.4 01:10:57 10° NNW 01:12:23 14° NNW 01:12:23 14° NNW
Okean O Rocket 4.4 01:11:01 10° NE 01:14:10 19° E 01:17:17 10° SE
Cosmos 2333 Rocket 3.9 01:13:45 18° NW 01:14:29 18° NNW 01:18:24 10° NNE
STARLINK-1135 3.3 01:15:16 64° NE 01:15:16 64° NE 01:18:14 10° E
Cosmos 1459 Rocket 4.2 01:08:48 10° N 01:14:58 70° ENE 01:21:12 10° SSE
Meteor 2-3 Rocket 3.7 01:09:44 10° NNW 01:15:26 64° W 01:21:08 10° S
ADEOS 3.6 01:11:33 10° N 01:16:41 56° WNW 01:18:09 42° WSW
STARLINK-1141 3.2 01:17:30 68° NE 01:17:30 68° NE 01:20:34 10° E
Aureole 2 Rocket 4.2 01:20:37 19° SSE 01:20:37 19° SSE 01:21:41 10° SSE
STARLINK-1140 3.1 01:19:45 71° NNE 01:19:45 71° NNE 01:22:54 10° E
Cosmos 407 Rocket 4.1 01:16:26 10° S 01:21:39 58° ESE 01:26:50 10° NNE
STARLINK-1156 3.0 01:21:59 73° NNE 01:21:59 73° NNE 01:25:14 10° E
GEOS 3 Rocket 4.3 01:17:55 10° NE 01:23:07 53° SE 01:28:11 11° SSW
STARLINK-1148 3.0 01:24:15 74° N 01:24:17 74° N 01:27:35 10° E
STARLINK-1149 3.1 01:26:41 56° ENE 01:26:41 56° ENE 01:29:01 10° E
STARLINK-1158 2.9 01:26:28 72° NNW 01:26:36 74° N 01:29:54 10° E
STARLINK-1153 2.8 01:28:45 70° NE 01:28:45 70° NE 01:31:31 10° E
Cosmos 1842 Rocket 3.5 01:26:03 24° SSW 01:28:38 68° WNW 01:33:09 10° N
STARLINK-1180 2.8 01:28:57 71° NE 01:28:57 71° NE 01:31:45 10° E
STARLINK-1174 2.8 01:29:24 71° NE 01:29:24 71° NE 01:32:11 10° E
STARLINK-1139 2.8 01:29:37 71° NE 01:29:37 71° NE 01:32:25 10° E
STARLINK-1133 2.8 01:29:50 72° NE 01:29:50 72° NE 01:32:38 10° E
STARLINK-1151 2.8 01:30:04 72° NNE 01:30:04 72° NNE 01:32:53 10° E
Cosmos 1862 4.4 01:26:14 10° N 01:30:05 46° ENE 01:33:55 10° SSE
STARLINK-1160 2.7 01:30:42 73° NNE 01:30:42 73° NNE 01:33:33 10° E
STARLINK-1161 2.7 01:30:55 73° NNE 01:30:55 73° NNE 01:33:46 10° E
STARLINK-1145 2.7 01:31:08 73° NNE 01:31:08 73° NNE 01:34:00 10° E
STARLINK-1172 2.7 01:31:20 74° NNE 01:31:20 74° NNE 01:34:12 10° E
Cosmos 921 Rocket 2.9 01:27:02 10° NNW 01:31:29 72° WSW 01:35:49 10° SSE
STARLINK-1182 2.7 01:31:47 74° NNE 01:31:47 74° NNE 01:34:40 10° E
STARLINK-1164 2.7 01:32:00 74° NNE 01:32:00 74° NNE 01:34:53 10° E
STARLINK-1168 2.7 01:32:13 74° NNE 01:32:13 74° NNE 01:35:07 10° E
STARLINK-1183 2.7 01:32:52 75° N 01:32:52 75° N 01:35:47 10° E
STARLINK-1181 2.7 01:33:04 75° N 01:33:04 75° N 01:36:00 10° E
STARLINK-1196 2.6 01:33:43 75° N 01:33:45 75° N 01:36:42 10° E
STARLINK-1186 2.6 01:34:09 75° N 01:34:12 75° N 01:37:08 10° E
STARLINK-1185 2.6 01:34:22 75° N 01:34:25 75° N 01:37:21 10° E
STARLINK-1175 2.6 01:34:35 75° N 01:34:39 75° N 01:37:35 10° E
STARLINK-1147 2.6 01:34:48 75° NNW 01:34:53 75° N 01:37:49 10° E
STARLINK-1146 2.6 01:35:01 74° NNW 01:35:06 75° N 01:38:02 10° E
Cosmos 1484 Rocket 2.8 01:31:20 10° NNE 01:35:19 86° ESE 01:39:18 10° SSW
STARLINK-1152 2.6 01:35:15 74° NNW 01:35:21 76° N 01:38:17 10° E
STARLINK-1195 2.6 01:35:27 74° NNW 01:35:33 76° N 01:38:30 10° E
STARLINK-1137 2.6 01:35:40 74° NNW 01:35:47 76° N 01:38:43 10° E
STARLINK-1142 2.6 01:35:54 74° NNW 01:36:01 76° N 01:38:57 10° E
STARLINK-1132 2.5 01:36:06 77° N 01:36:06 77° N 01:38:54 10° E
STARLINK-1127 2.6 01:36:06 73° NNW 01:36:13 76° N 01:39:09 10° E
STARLINK-1184 2.6 01:36:19 73° NNW 01:36:27 76° N 01:39:23 10° E
Meteor 2-10 Rocket 4.1 01:35:41 33° W 01:36:35 35° WNW 01:41:17 10° N
STARLINK-1193 2.6 01:36:32 73° NNW 01:36:41 76° N 01:39:37 10° E
USA 116 3.8 01:33:43 10° SSE 01:36:47 56° ENE 01:39:52 10° N
STARLINK-1194 2.6 01:36:45 73° NNW 01:36:54 76° N 01:39:50 10° E
STARLINK-1150 2.5 01:38:20 77° NNW 01:38:25 78° NNE 01:41:13 10° E
Cosmos 2237 Rocket 3.5 01:38:03 21° NW 01:39:19 23° NW 01:43:46 10° NNE
CZ-4C R/B 3.3 01:36:43 24° WNW 01:39:22 35° NNW 01:45:33 10° NE
STARLINK-1163 2.4 01:39:33 76° NNW 01:39:40 79° N 01:42:29 10° E
Cosmos 1802 Rocket 4.1 01:33:53 10° N 01:40:22 86° ENE 01:46:49 10° S
STARLINK-1177 2.4 01:41:16 73° NW 01:41:27 80° N 01:44:15 10° E
STARLINK-1173 2.4 01:41:17 72° NW 01:41:29 80° N 01:44:17 10° E
Cosmos 614 Rocket 3.9 01:36:22 10° SSW 01:41:32 89° ESE 01:46:48 10° NNE
COSMOS 2455 4.3 01:36:13 10° NNW 01:41:36 32° NNE 01:46:58 10° E
STARLINK-1167 2.4 01:41:48 71° NW 01:42:01 80° N 01:44:51 10° E
Cosmos 1633 Rocket 4.1 01:41:10 10° N 01:45:25 47° ENE 01:49:39 10° SSE
Cosmos 1190 Rocket 4.2 01:41:14 10° SSW 01:46:30 77° ESE 01:51:50 10° NNE
COSMO-SKYMED 1 2.5 01:42:22 10° S 01:46:39 61° WSW 01:50:59 10° NNW
Cosmos 2221 2.5 01:42:46 11° SSW 01:46:46 57° WNW 01:51:02 10° N
STARLINK-1136 2.5 01:46:34 62° WNW 01:46:58 83° NNE 01:49:46 10° E
Cosmos 2219 Rocket 4.1 01:44:59 12° NW 01:47:02 14° NNW 01:50:06 10° NNE
Meteor 1-27 4.1 01:42:58 10° SSW 01:48:29 63° WNW 01:54:02 10° N
Cosmos 1666 Rocket 4.1 01:44:24 10° N 01:48:50 60° ENE 01:53:11 10° SSE
Cosmos 1238 4.0 01:48:28 10° SSW 01:51:28 76° W 01:54:45 10° N
Cosmos 1238 Rocket 3.7 01:45:59 10° N 01:52:16 87° W 01:57:35 10° S
STARLINK-1070 4.1 01:51:12 21° SSW 01:52:37 34° SSE 01:55:20 10° E
STARLINK-1170 2.3 01:52:16 57° WNW 01:52:42 86° N 01:55:20 10° ESE
STARLINK-1124 3.8 01:51:36 24° SSW 01:52:53 39° SSE 01:55:39 10° E
STARLINK-1066 4.1 01:51:49 21° SSW 01:53:15 34° SSE 01:55:58 10° E
STARLINK-1081 4.0 01:52:02 21° SSW 01:53:28 34° SSE 01:56:11 10° E
STARLINK-1069 4.0 01:52:28 21° SSW 01:53:55 34° SSE 01:56:38 10° E
STARLINK-1085 4.0 01:52:41 21° SSW 01:54:08 35° SSE 01:56:51 10° E
STARLINK-1086 4.0 01:52:56 21° SSW 01:54:25 35° SSE 01:57:08 10° E
STARLINK-1095 4.0 01:53:07 20° SSW 01:54:36 35° SSE 01:57:19 10° E
STARLINK-1077 4.0 01:53:19 20° SSW 01:54:48 35° SSE 01:57:30 10° E
STARLINK-1075 4.0 01:53:33 20° SSW 01:55:03 35° SSE 01:57:47 10° E
STARLINK-1093 4.0 01:53:46 20° SSW 01:55:16 35° SSE 01:57:59 10° E
PSLV R/B 3.6 01:51:40 10° NNE 01:55:25 88° WNW 01:59:12 10° SSW
STARLINK-1074 4.0 01:54:00 20° SSW 01:55:30 35° SSE 01:58:14 10° E
STARLINK-1087 4.0 01:54:12 20° SSW 01:55:43 35° SSE 01:58:26 10° E
STARLINK-1088 4.0 01:54:24 20° SSW 01:55:54 35° SSE 01:58:38 10° E
STARLINK-1115 4.0 01:54:38 20° SSW 01:56:10 36° SSE 01:58:54 10° E
STARLINK-1076 4.0 01:54:52 20° SSW 01:56:23 36° SSE 01:59:08 10° E
STARLINK-1092 4.0 01:55:04 20° SSW 01:56:36 36° SSE 01:59:21 10° E
STARLINK-1080 4.0 01:55:17 20° SSW 01:56:50 36° SSE 01:59:33 10° E
STARLINK-1090 4.0 01:55:30 20° SSW 01:57:03 36° SSE 01:59:48 10° E
STARLINK-1089 3.9 01:55:45 20° SSW 01:57:19 36° SSE 02:00:04 10° E
STARLINK-1107 3.9 01:55:57 20° SSW 01:57:31 36° SSE 02:00:15 10° E
STARLINK-1109 3.9 01:56:09 20° SSW 01:57:44 36° SSE 02:00:29 10° E
Cosmos 1943 Rocket 3.1 01:56:19 22° W 01:57:51 25° WSW 02:02:13 10° SSW
STARLINK-1091 3.9 01:56:23 20° SSW 01:57:58 37° SSE 02:00:43 10° E
STARLINK-1072 3.9 01:56:34 20° SSW 01:58:09 37° SSE 02:00:55 10° E
Meteor 2-2 Rocket 4.3 01:52:20 10° SSW 01:58:22 77° WNW 02:04:26 10° N
STARLINK-1096 3.9 01:56:47 20° SSW 01:58:23 37° SSE 02:01:08 10° E
STARLINK-1079 3.9 01:57:00 19° SSW 01:58:37 37° SSE 02:01:22 10° E
STARLINK-1116 3.9 01:57:14 19° SSW 01:58:51 37° SSE 02:01:37 10° E
STARLINK-1162 2.9 01:57:48 33° WNW 01:59:08 85° N 02:02:23 10° E
STARLINK-1094 3.9 01:57:40 19° SSW 01:59:18 37° SSE 02:02:03 10° E
STARLINK-1117 3.9 01:57:52 19° SSW 01:59:31 37° SSE 02:02:16 10° E
STARLINK-1078 3.9 01:58:06 19° SSW 01:59:46 38° SSE 02:02:31 10° E
STARLINK-1108 3.9 01:58:19 19° SSW 01:59:59 38° SSE 02:02:44 10° E
NOSS 2-1 (C) 4.2 01:58:43 25° WNW 02:00:00 32° NNW 02:03:47 10° NE
STARLINK-1071 3.9 01:58:31 19° SSW 02:00:11 38° SSE 02:02:56 10° E
STARLINK-1110 3.9 01:58:46 19° SSW 02:00:27 38° SSE 02:03:12 10° E
STARLINK-1122 3.9 01:59:10 19° SSW 02:00:51 38° SSE 02:03:37 10° E
STARLINK-1126 3.9 01:59:23 19° SSW 02:01:06 38° SSE 02:03:51 10° E
STARLINK-1157 2.9 01:59:47 31° WNW 02:01:12 86° NNE 02:04:26 10° ESE
STARLINK-1082 3.8 01:59:37 19° SSW 02:01:19 38° SSE 02:04:05 10° E
STARLINK-1100 3.8 01:59:50 19° SSW 02:01:33 38° SSE 02:04:19 10° E
STARLINK-1083 3.8 02:00:03 19° SSW 02:01:47 39° SSE 02:04:33 10° E
Cosmos 2360 Rocket 4.5 02:00:20 10° NNW 02:01:48 11° N 02:03:15 10° NNE
STARLINK-1125 3.8 02:00:15 19° SSW 02:01:59 39° SSE 02:04:45 10° E
STARLINK-1159 2.9 02:01:56 29° WNW 02:03:27 87° NNE 02:06:41 10° ESE
Meteor 1-31 Rocket 3.4 02:00:16 10° N 02:03:43 33° WNW 02:05:57 18° WSW
Cosmos 2016 Rocket 3.9 01:57:35 10° NNW 02:03:51 79° W 02:10:09 10° S
NOSS 2-1 (D) 4.3 02:02:42 23° WNW 02:04:07 30° NNW 02:07:52 10° NE
Cosmos 676 Rocket 4.4 01:58:56 10° SSW 02:04:13 68° ESE 02:09:33 10° NNE
STARLINK-1171 2.9 02:04:10 27° WNW 02:05:46 89° N 02:09:00 10° ESE
Lacrosse 5 3.3 02:06:05 17° WSW 02:06:50 18° SW 02:10:07 10° SSW
BREEZE-M DEB (TANK) 3.1 02:01:57 18° W 02:06:50 75° SSW 02:10:39 10° ESE
STARLINK-1155 2.9 02:06:14 26° WNW 02:07:55 90° ENE 02:11:10 10° ESE
ATLAS 2AS CENTAUR R/B 3.3 02:00:42 10° NW 02:08:28 64° NE 02:15:37 10° ESE
CZ-4B R/B 3.2 02:05:37 10° N 02:09:01 35° WNW 02:12:00 12° SW
STARLINK-1166 2.9 02:08:26 25° WNW 02:10:13 89° SSW 02:13:28 10° ESE
Cosmos 1980 Rocket 4.4 02:07:37 10° NNW 02:11:21 18° NNE 02:15:04 10° ENE
STARLINK-1165 2.9 02:10:35 23° WNW 02:12:27 88° SSW 02:15:43 10° ESE
STARLINK-1169 2.9 02:12:44 22° WNW 02:14:41 86° SSW 02:17:56 10° ESE
ADEOS Rocket 3.3 02:08:36 10° SSE 02:15:00 87° WSW 02:22:12 10° NNW
STARLINK-1179 2.4 02:14:03 26° W 02:15:22 74° SSW 02:18:01 10° ESE
ALOS 2.3 02:11:01 10° N 02:15:40 62° WNW 02:20:16 10° SSW
STARLINK-1176 2.4 02:14:34 25° W 02:15:56 74° SSW 02:18:36 10° ESE
STARLINK-1178 2.9 02:14:52 21° WNW 02:16:55 85° SSW 02:20:10 10° ESE
CZ-2C R/B 3.6 02:14:22 10° N 02:18:34 25° WNW 02:22:17 12° WSW
ATLAS CENTAUR R/B 2.9 02:16:08 16° WNW 02:18:34 24° NNW 02:22:08 10° NNE
STARLINK-1120 2.9 02:16:56 20° WNW 02:19:03 83° SSW 02:22:18 10° ESE
FENGYUN 3A 3.7 02:14:03 10° N 02:19:27 66° WNW 02:24:50 10° SSW
Cosmos 2233 Rocket 4.2 02:14:48 10° N 02:21:06 79° E 02:27:25 10° SSE
STARLINK-1131 2.9 02:19:07 19° WNW 02:21:19 82° SSW 02:24:35 10° ESE
NOAA 6 4.2 02:16:43 10° NNE 02:21:56 80° ESE 02:27:06 10° SSW
SL-16 R/B 3.3 02:19:42 15° W 02:23:10 25° NW 02:27:52 10° NNE
IDEFIX/ARIANE 42P 4.4 02:21:17 10° NNW 02:23:25 13° NW 02:24:45 12° WNW
STARLINK-1190 2.9 02:21:20 18° WNW 02:23:39 80° SSW 02:26:54 10° ESE
STARLINK-1106 4.5 02:22:10 10° SW 02:26:06 47° SSE 02:30:03 10° ENE
Cosmos 192 4.3 02:23:12 10° NNW 02:28:09 88° WSW 02:33:04 10° SSE
Cosmos 1763 Rocket 3.7 02:22:57 10° NNW 02:28:19 79° ENE 02:33:39 10° SSE
Cosmos 1470 Rocket 3.9 02:24:16 10° N 02:28:44 71° ENE 02:33:12 10° SSE
Cosmos 1805 Rocket 4.2 02:25:25 10° NNW 02:29:15 31° W 02:33:05 10° SSW
Cosmos 2369 Rocket 3.5 02:25:27 10° NW 02:29:23 19° W 02:33:20 10° SW
Sich 1 3.4 02:25:26 10° NNW 02:29:28 41° W 02:33:30 10° SSW
STARLINK-1112 4.4 02:27:02 10° SW 02:31:01 49° SSE 02:35:00 10° ENE
Cosmos 1400 Rocket 2.8 02:27:30 10° SSW 02:31:32 78° WNW 02:35:40 10° N
Cosmos 1869 4.1 02:28:12 10° SW 02:31:43 29° WNW 02:35:14 10° N
Cosmos 2173 Rocket 4.5 02:26:22 10° NNW 02:32:04 37° W 02:37:41 10° SSW
H-2A R/B 3.7 02:29:14 10° N 02:32:48 25° WNW 02:36:24 10° WSW
TELKOM 3 3.8 02:31:50 16° WSW 02:33:13 32° SSW 02:35:10 10° SE
Cosmos 1633 3.8 02:32:09 10° NW 02:34:57 21° W 02:37:43 10° SW
SL-16 R/B 4.5 02:33:12 10° NNW 02:36:03 14° NNE 02:38:53 10° NE
Cosmos 2084 3.6 02:33:27 10° SW 02:37:58 86° SE 02:42:28 10° NE
Cosmos 1656 Rocket 4.4 02:33:55 10° NW 02:38:53 32° WSW 02:43:51 10° SSW
Cosmos 1603 4.1 02:33:38 10° WSW 02:39:05 45° NW 02:44:34 10° NNE
CZ-4B DEB 4.3 02:37:38 10° N 02:43:02 57° WNW 02:48:22 10° SW
Cosmos 1943 3.4 02:37:34 10° SW 02:43:02 51° NW 02:48:34 10° NNE
H-2A R/B 2.9 02:40:55 10° NNE 02:44:43 78° ESE 02:48:26 10° S
STARLINK-1118 2.4 02:42:49 10° WSW 02:45:19 72° SSE 02:47:49 10° ENE
STARLINK-1129 3.2 02:43:31 10° WNW 02:46:43 64° SSW 02:49:59 10° ESE
USA 215 3.6 02:40:30 10° E 02:46:55 59° N 02:53:20 10° WNW
STARLINK-1134 3.2 02:45:37 10° WNW 02:48:53 62° SSW 02:52:08 10° ESE
CZ-4B R/B 3.1 02:44:29 10° NNE 02:49:50 73° WNW 02:55:06 10° SSW
Okean O Rocket 1.6 02:46:35 10° N 02:50:55 60° WNW 02:55:11 10° SSW
STARLINK-1135 3.2 02:48:06 10° WNW 02:51:23 61° SSW 02:54:38 10° ESE
STARLINK-1141 3.3 02:50:27 10° WNW 02:53:41 59° SSW 02:56:57 10° ESE
SMAP 3.3 02:50:22 10° NNE 02:55:03 76° ESE 02:59:43 10° S
Meteor 1-20 Rocket 4.4 02:49:53 10° NNW 02:55:35 84° ENE 03:01:22 10° SSE
